User: anonymous   Login
Location: Fort Wayne
(41.1310°N, 85.1290°W)
Time: 04:07:30
(UTC-04:00)
Language:

COSMOS 2428 - Orbit

View from above orbital plane
View from above orbital plane
View from above satellite
View from above satellite

Ground track
Ground track

The orbit data is extracted from the following two-line orbital elements,

1 31792U 07029A   16240.19379664 -.00000337  00000-0 -15675-3 0  9990
2 31792  70.9310 309.2857 0010099 349.5633  10.5276 14.12327834472560
Epoch (UTC): 27 August 2016 04:39:04
Eccentricity: 0.0010099
inclination: 70.9310°
perigee height: 844 km
apogee height: 859 km
right ascension of ascending node: 309.2857°
argument of perigee: 349.5633°
revolutions per day: 14.12327834
mean anomaly at epoch: 10.5276°
orbit number at epoch: 47256

The dashed part of the orbit path shows where the satellite is in the earth's shadow,  

DLR